Location: Moscow
(38.8570°N, 84.2291°W)
Time: 15:50:11
(UTC+00:00)

Oscar 11 - Visible Passes

Search period start: 11 March 2026 00:00
Search period end: 21 March 2026 00:00
Orbit: 590 x 602 km, 97.8° (Epoch: 11 March)

Date Brightness Start Highest point End Pass type
(mag) Time Alt. Az. Time Alt. Az. Time Alt. Az.
11 Mar 9.7 09:00:29 10° NNE 09:01:02 14° NNE 09:01:02 14° NNE visible
12 Mar 9.5 09:10:25 10° NNE 09:11:15 16° NNE 09:11:15 16° NNE visible
13 Mar 9.2 09:20:23 10° N 09:21:28 18° N 09:21:28 18° N visible
14 Mar 9.0 09:30:23 10° N 09:31:41 19° N 09:31:41 19° N visible
15 Mar 8.9 09:40:27 10° N 09:41:53 20° NNW 09:41:53 20° NNW visible
16 Mar 8.8 09:50:33 10° N 09:52:05 19° NNW 09:52:05 19° NNW visible
17 Mar 10.0 08:25:04 10° NE 08:25:36 13° NE 08:25:36 13° NE visible
17 Mar 8.8 10:00:44 10° NNW 10:02:17 18° NNW 10:02:17 18° NNW visible
18 Mar 9.7 08:34:45 10° NNE 08:35:48 16° NE 08:35:48 16° NE visible
18 Mar 8.9 10:10:59 10° NNW 10:12:28 16° NW 10:12:28 16° NW visible
19 Mar 9.4 08:44:30 10° NNE 08:45:59 20° NE 08:45:59 20° NE visible
19 Mar 9.0 10:21:23 10° NNW 10:22:41 14° NW 10:22:41 14° NW visible
20 Mar 9.0 08:54:19 10° NNE 08:56:10 25° NNE 08:56:10 25° NNE visible
20 Mar 9.1 10:32:06 10° NW 10:32:52 11° NW 10:32:52 11° NW visible
